Location: Penticton
(49.5000°N, 119.5830°W)
Time: 09:02:08
(UTC-08:00)

Daily predictions for brighter satellites

Satellite Brightness Start Highest point End
(mag) Time Altitude Azimuth Time Altitude Azimuth Time Altitude Azimuth
Cosmos 1937 Rocket 4.5 16:29:31 10° SSE 16:33:53 28° E 16:38:16 10° NE
Okean 1 4.3 16:32:08 10° SSE 16:35:28 26° E 16:38:49 10° NNE
Cosmos 1500 3.2 16:34:00 10° N 16:37:45 57° ENE 16:41:28 10° SSE
Cosmos 2227 Rocket 2.9 16:34:59 10° NNW 16:40:05 33° NE 16:45:10 10° ESE
Cosmos 1271 Rocket 3.8 16:37:09 10° NNE 16:40:13 23° ENE 16:43:17 10° ESE
Cosmos 1656 Rocket 3.8 16:36:56 10° SSW 16:42:23 62° ESE 16:47:48 10° NE
Cosmos 2219 3.2 16:37:27 10° NNW 16:43:05 70° ENE 16:48:42 10° SE
ALOS 3.7 16:40:59 10° E 16:43:49 16° ENE 16:46:39 10° NNE
Cosmos 1455 Rocket 4.1 16:40:29 10° NNE 16:44:13 25° ENE 16:47:53 10° SE
USA 238 DEB 3.9 16:38:20 10° NW 16:45:18 55° NE 16:52:19 10° ESE
USA 238 3.9 16:38:26 10° NW 16:45:23 55° NE 16:52:25 10° ESE
Cosmos 1975 3.2 16:41:39 10° N 16:45:30 41° ENE 16:49:21 10° SSE
CZ-2C R/B 2.8 16:41:45 10° S 16:46:56 75° WSW 16:52:07 10° NNW
ISS -3.8 16:44:40 10° WNW 16:47:59 88° S 16:51:16 10° ESE
Cosmos 1544 Rocket 4.4 16:44:19 10° N 16:48:09 29° ENE 16:51:57 10° SE
Meteor 1-4 Rocket 2.9 16:44:44 10° NNW 16:48:27 72° W 16:52:03 10° S
ATLAS CENTAUR R/B 4.4 16:45:48 10° WNW 16:48:50 21° WSW 16:51:59 10° SSW
Abrixas rocket 4.0 16:48:30 10° SSW 16:51:03 21° SSE 16:53:34 10° E
Cosmos 1484 Rocket 3.0 16:49:03 10° SSE 16:52:56 50° ENE 16:56:51 10° N
Cosmos 1607 4.5 16:49:47 10° NW 16:56:14 69° WSW 17:02:38 10° SSE
YAOGAN 1 3.3 16:53:26 10° SE 16:57:14 31° ENE 17:01:04 10° N
ERS-2 3.6 16:55:08 10° ESE 16:57:39 18° ENE 17:00:11 10° NNE
MSX 4.3 16:53:03 10° S 16:58:48 69° WSW 17:04:35 10° NNW
Cosmos 2142 Rocket 4.5 16:53:12 10° S 16:59:16 64° E 17:05:21 10° NNE
CORIOLIS 4.2 16:56:53 10° SE 17:02:11 57° ENE 17:07:29 10° N
CZ-4 R/B 1.6 16:58:37 10° SE 17:02:17 42° ENE 17:06:02 10° N
Cosmos 990 Rocket 4.3 16:59:01 10° S 17:03:54 46° ESE 17:08:51 10° NNE
NOSS 2-3 (D) 4.1 17:00:42 10° SSW 17:05:17 56° SE 17:10:11 13° NE
COSMO-SKYMED 1 4.0 17:04:23 13° NE 17:06:36 18° E 17:09:37 10° SE
Cosmos 2297 Rocket 2.6 17:02:03 10° NNW 17:07:26 42° NE 17:12:47 10° ESE
Gblst 52 Del rocket 4.2 17:02:31 10° W 17:08:02 73° N 17:13:33 12° E
Cosmos 1812 3.2 17:05:06 10° SSW 17:08:57 61° WNW 17:12:49 10° N
Cosmos 1666 3.0 17:06:36 10° N 17:10:13 41° ENE 17:13:46 10° SSE
NOSS 3-1 (C) 4.2 17:05:04 10° WSW 17:10:51 47° NNW 17:17:20 11° NE
Cosmos 1943 Rocket 3.2 17:07:43 10° WSW 17:13:04 42° NW 17:18:28 10° NNE
Cosmos 2279 Rocket 4.1 17:07:31 10° S 17:13:37 58° E 17:19:45 10° NNE
Meteor 1-18 Rocket 4.2 17:10:19 10° S 17:15:53 80° E 17:21:35 10° NNE
NOSS 3-2 (A) 4.1 17:08:53 10° NW 17:15:57 54° NE 17:23:46 10° ESE
SJ-7 4.5 17:14:58 10° SSE 17:18:59 81° WSW 17:23:00 10° NNW
Cosmos 1975 Rocket 3.0 17:16:02 10° S 17:20:30 75° E 17:25:00 10° NNE
USA 161 2.9 17:18:00 10° N 17:20:37 38° WNW 17:23:21 10° SW
Cosmos 2150 Rocket 4.2 17:15:49 10° S 17:21:10 59° ESE 17:26:23 11° NNE
NOSS 3-2 (C) 4.2 17:14:34 10° NW 17:21:32 49° NE 17:29:13 10° ESE
Meteor 2-4 Rocket 4.3 17:20:01 10° SSE 17:24:46 32° E 17:29:01 12° NNE
SJ 16-02 2.8 17:21:59 10° SE 17:24:55 18° E 17:25:04 18° E
CZ-4 R/B 4.4 17:26:33 10° SSE 17:30:37 57° ENE 17:34:42 10° N
ATLAS 2AS CENTAUR R/B 3.2 17:24:50 10° SSW 17:32:26 57° ESE 17:38:41 17° NE
Cosmos 158 Rocket 3.9 17:27:59 10° NNW 17:33:07 61° ENE 17:38:04 10° SE
SPOT 3 Rocket 3.8 17:30:04 10° SE 17:34:57 44° ENE 17:39:52 10° N
NOSS 2-3 (E) 4.0 17:30:41 10° SW 17:35:28 89° NW 17:39:38 19° NE
ATLAS 3B R/B 2.6 17:29:22 10° NW 17:36:10 87° NE 17:42:42 10° SE
MONITOR-E 4.5 17:36:24 10° SE 17:39:17 40° ENE 17:42:12 10° N
EO 1 Del DPAF 4.1 17:43:09 29° E 17:43:11 29° E 17:46:32 10° SSE
Meteor 1-28 Rocket 3.1 17:40:06 12° NNE 17:43:35 84° ESE 17:47:20 10° SSW
Meteor 1-19 Rocket 4.2 17:40:38 10° S 17:46:15 67° E 17:52:01 10° NNE
Cosmos 2263 Rocket 3.9 17:44:47 10° N 17:47:30 14° NNE 17:47:30 14° NNE
NOSS 3-1 (A) 4.4 17:42:48 10° W 17:48:31 41° NNW 17:53:34 16° NE
Cosmos 1743 3.2 17:44:44 10° NNW 17:48:35 63° W 17:52:25 10° S
Cosmos 1536 Rocket 3.7 17:44:29 10° SSE 17:48:40 47° E 17:50:49 25° NNE
Cosmos 389 Rocket 3.7 17:47:07 10° NNW 17:50:29 44° W 17:53:48 10° S
SKYMED 2 3.7 17:53:01 28° NE 17:55:02 51° E 17:59:16 10° S
DNEPR-1 R/B 4.5 17:54:17 10° NNW 17:58:44 38° NE 17:59:47 34° ENE
Cosmos 1269 Rocket 3.9 17:54:53 10° NNW 18:00:12 65° ENE 18:05:28 10° SE
CZ-2C R/B 3.7 17:56:25 12° NNE 18:00:48 89° W 18:05:31 10° SSW
Cosmos 1898 Rocket 4.4 17:56:11 10° SW 18:01:11 46° WNW 18:06:06 11° NNE
Ariane Rocket 4.4 17:57:31 10° SSW 18:02:15 40° W 18:07:01 10° NNW
Cosmos 2369 Rocket 4.3 17:59:50 10° WNW 18:03:31 18° NW 18:07:14 10° N
MOS 1 4.2 17:57:51 10° SSE 18:03:33 89° ENE 18:09:16 10° NNW
FENGYUN 3A 3.5 17:58:39 10° SSE 18:04:00 72° ENE 18:09:22 10° N
Cosmos 1818 4.3 17:58:55 10° WSW 18:04:10 48° NW 18:07:35 21° NNE
Cosmos 1697 Rocket 3.6 18:03:53 10° SSE 18:07:58 28° ESE 18:07:58 28° ESE
Landsat 4 3.6 18:08:19 40° NNE 18:09:39 86° ESE 18:13:28 10° SSW
Cosmos 2266 Rocket 3.9 18:03:56 10° N 18:10:02 90° WSW 18:16:11 10° S
Cosmos 2082 3.7 18:04:45 10° NNW 18:10:24 83° WSW 18:16:02 10° SSE
NOSS 2-3 (C) 4.5 18:06:25 10° WSW 18:11:13 57° NW 18:14:16 27° NNE
FengYun 1-2 T 4.4 18:06:02 10° SE 18:11:25 49° ENE 18:16:51 10° N
NOAA 12 4.0 18:07:20 10° SSE 18:12:37 83° ENE 18:17:54 10° NNW
Cosmos 1125 Rocket 3.6 18:07:32 10° S 18:12:41 53° ESE 18:13:57 43° ENE
Cosmos 494 Rocket 4.3 18:10:08 10° NNW 18:15:05 43° NE 18:15:05 43° NE
Cosmos 1937 Rocket 4.4 18:10:39 10° SW 18:15:37 47° WNW 18:19:42 15° N
COSMOS 2455 4.4 18:12:55 10° NNW 18:17:06 19° NNE 18:17:07 19° NNE
Cosmos 1048 Rocket 4.1 18:12:33 10° NNW 18:17:57 79° WSW 18:23:20 10° SSE
CENTAUR R/B 3.3 18:11:46 10° NW 18:19:05 50° NE 18:22:01 36° E
ALOS 2.3 18:15:59 10° SSE 18:20:40 81° WSW 18:25:22 10° NNW
Cosmos 724 4.4 18:15:59 10° NW 18:21:46 72° SW 18:27:32 10° SSE
ISS -1.6 18:21:32 10° W 18:24:09 22° SW 18:25:19 18° S
Cosmos 2227 Rocket 2.9 18:18:55 10° NW 18:24:26 54° WSW 18:29:55 10° S
Abrixas rocket 3.3 18:24:01 10° WSW 18:26:22 41° SW 18:26:22 41° SW
STPSAT 2 (USA 217) 4.5 18:22:45 10° NNW 18:27:21 85° ENE 18:28:21 55° SE
Meteor 1-23 Rocket 4.1 18:22:32 10° S 18:28:16 71° E 18:30:57 32° NNE
ERS-2 3.2 18:27:29 10° S 18:31:01 45° W 18:34:35 10° NNW
YAOGAN 1 4.4 18:29:24 10° SSW 18:33:18 32° W 18:37:13 10° NNW
CZ-4 R/B 4.1 18:34:44 10° SW 18:37:33 19° W 18:40:25 10° NW
Cosmos 1244 Rocket 4.3 18:34:37 10° N 18:40:47 74° E 18:46:56 10° SSE
Cosmos 372 Rocket 3.8 18:37:36 10° SSW 18:42:49 87° ESE 18:43:19 74° NNE
COSMO-SKYMED 1 3.2 18:41:36 36° NNW 18:43:06 55° WNW 18:47:20 10° SSW
Cosmos 1980 Rocket 4.0 18:43:08 10° S 18:44:35 17° SSE 18:44:35 17° SSE
Cosmos 2297 Rocket 3.5 18:46:15 10° NW 18:51:29 40° WSW 18:56:42 10° S
BREEZE-M DEB (TANK) 3.6 18:53:49 10° W 18:56:02 58° W 18:56:02 58° W
Gblst 52 Del rocket 4.4 18:54:14 10° WNW 18:59:51 67° SSW 19:00:32 62° S
SJ 16-02 2.2 18:58:44 10° SW 19:02:08 46° WSW 19:02:08 46° WSW
NOSS 3-2 (C) 4.3 19:05:33 10° NW 19:12:52 62° SW 19:17:39 26° SSE
Cosmos 1656 3.9 19:11:09 10° SW 19:16:12 63° W 19:16:12 63° W
ATLAS 2AS CENTAUR R/B 3.6 19:15:54 10° WSW 19:23:42 54° NW 19:26:09 41° NNE
Cosmos 2369 4.3 19:20:00 10° SW 19:25:28 53° WNW 19:25:28 53° WNW
Cosmos 2278 4.3 19:21:43 10° SW 19:27:01 54° WNW 19:27:01 54° WNW
Cosmos 2263 Rocket 4.2 19:27:42 10° NNW 19:29:12 18° NNW 19:29:12 18° NNW
NOSS 3-4 (A) 4.5 19:37:51 10° SW 19:41:28 38° SW 19:41:28 38° SW
Cosmos 1697 Rocket 4.2 19:46:47 10° SW 19:49:46 31° WSW 19:49:46 31° WSW
CENTAUR R/B 3.5 20:02:32 10° NW 20:09:14 59° W 20:09:14 59° W
